Slidell, LA

2:25 PM CDT on July 22, 2017 (GMT -0500)
Slidell

Weather History for KASD - December, 2012

Change the Weather History Date:

Monday, December 10, 2012

  Actual Average (KNEW) Record (KNEW)
Temperature  
Mean Temperature 62 °F -  
Max Temperature 75 °F 64 °F 81 °F (1972)
Min Temperature 46 °F 49 °F 30 °F (1995)
Degree Days  
Heating Degree Days 4    
Growing Degree Days 12 (Base 50)    
Moisture  
Dew Point 62 °F    
Average Humidity 91    
Maximum Humidity 100    
Minimum Humidity 76    
Precipitation  
Precipitation 0.45 in - - ()
Sea Level Pressure  
Sea Level Pressure 29.85 in    
Wind  
Wind Speed 8 mph (WSW)    
Max Wind Speed 17 mph    
Max Gust Speed 26 mph    
Visibility 9 miles    
Events Rain , Thunderstorm    
Averages and records for this station are not official NWS values.
T = Trace of Precipitation, MM = Missing Value Source: NWS Daily Summary

Daily Weather History Graph

Daily Weather History Graph

Search for Another Location

Airport or City:

Trip Planner

Search our weather history database for the weather conditions in past years. The results will help you decide how hot, cold, wet, or windy it might be!

Date:

Astronomy

Dec. 10, 2012 Rise Set
Actual Time 6:45 AM CST 4:59 PM CST
Civil Twilight 6:19 AM CST 5:25 PM CST
Nautical Twilight 5:49 AM CST 5:55 PM CST
Astronomical Twilight 5:19 AM CST 6:24 PM CST
Moon 3:36 AM CST (12/10) 2:42 PM CST (12/10)
Length of Visible Light 11h 06m
Length of Day
10h 13m
Waning Crescent, 10% of the Moon is Illuminated
Dec 10
Waning Crescent
Dec 13
New
Dec 19
First Quarter
Dec 28
Full
Jan 4
Last Quarter

Hourly Weather History & Observations

Time (CST) Temp. Dew Point Humidity Pressure Visibility Wind Dir Wind Speed Gust Speed Precip Events Conditions
12:53 AM 71.1 °F 70.0 °F 96% 29.90 in 10.0 mi South 6.9 mph - N/A   Overcast
1:53 AM 71.1 °F 70.0 °F 96% 29.88 in 10.0 mi South 6.9 mph - N/A   Overcast
2:53 AM 71.1 °F 70.0 °F 96% 29.86 in 10.0 mi South 8.1 mph - N/A   Overcast
3:53 AM 71.1 °F 70.0 °F 96% 29.83 in 10.0 mi South 9.2 mph - N/A   Overcast
4:53 AM 71.1 °F 70.0 °F 96% 29.81 in 10.0 mi South 4.6 mph - N/A   Overcast
5:53 AM 71.1 °F 70.0 °F 96% 29.81 in 10.0 mi South 8.1 mph - N/A   Overcast
6:01 AM 71.6 °F 69.8 °F 94% 29.82 in 10.0 mi South 8.1 mph - N/A   Overcast
6:23 AM 71.6 °F 69.8 °F 94% 29.81 in 10.0 mi South 8.1 mph - N/A   Overcast
6:44 AM 71.6 °F 69.8 °F 94% 29.82 in 10.0 mi South 9.2 mph - N/A   Overcast
6:53 AM 72.0 °F 70.0 °F 93% 29.82 in 10.0 mi South 8.1 mph - N/A   Overcast
7:39 AM 71.6 °F 69.8 °F 94% 29.83 in 10.0 mi South 9.2 mph - N/A   Overcast
7:53 AM 73.0 °F 70.0 °F 90% 29.83 in 10.0 mi SSW 10.4 mph 19.6 mph N/A   Overcast
8:25 AM 73.4 °F 69.8 °F 88% 29.83 in 10.0 mi South 10.4 mph - N/A   Mostly Cloudy
8:53 AM 73.0 °F 70.0 °F 90% 29.81 in 10.0 mi South 11.5 mph 19.6 mph N/A   Scattered Clouds
9:53 AM 75.9 °F 69.1 °F 79% 29.82 in 10.0 mi South 17.3 mph 21.9 mph N/A   Mostly Cloudy
10:23 AM 75.2 °F 68.0 °F 78% 29.82 in 10.0 mi SSW 11.5 mph 19.6 mph N/A Thunderstorm Overcast
10:31 AM 71.6 °F 66.2 °F 83% 29.84 in 1.5 mi SW 15.0 mph 26.5 mph 0.12 in Rain , Thunderstorm Heavy Rain
10:40 AM 66.2 °F 64.4 °F 94% 29.83 in 2.0 mi SW 6.9 mph 21.9 mph 0.17 in Rain Light Rain
10:48 AM 66.2 °F 64.4 °F 94% 29.82 in 10.0 mi West 6.9 mph - 0.17 in   Overcast
10:53 AM 68.0 °F 64.9 °F 90% 29.83 in 10.0 mi Variable 6.9 mph - 0.17 in   Overcast
11:09 AM 66.2 °F 64.4 °F 94% 29.84 in 7.0 mi WSW 8.1 mph - 0.00 in Rain , Thunderstorm Light Thunderstorms and Rain
11:13 AM 66.2 °F 64.4 °F 94% 29.83 in 1.8 mi SW 8.1 mph - 0.10 in Rain , Thunderstorm Heavy Thunderstorms and Rain
11:27 AM 66.2 °F 64.4 °F 94% 29.83 in 3.0 mi SW 6.9 mph - 0.18 in Rain , Thunderstorm Thunderstorms and Rain
11:41 AM 66.2 °F 66.2 °F 100% 29.83 in 8.0 mi SW 8.1 mph - 0.19 in Rain Light Rain
11:50 AM 66.2 °F 66.2 °F 100% 29.83 in 9.0 mi SW 8.1 mph - 0.20 in Rain Light Rain
11:53 AM 66.0 °F 66.0 °F 100% 29.83 in 7.0 mi SW 6.9 mph - 0.21 in Rain Light Rain
12:53 PM 66.0 °F 66.0 °F 100% 29.81 in 10.0 mi WSW 3.5 mph - 0.06 in Rain Light Rain
1:33 PM 62.6 °F 60.8 °F 94% 29.82 in 10.0 mi Variable 5.8 mph - 0.00 in Rain Light Rain
1:49 PM 62.6 °F 60.8 °F 94% 29.81 in 10.0 mi NNW 5.8 mph - 0.01 in Rain Light Rain
1:53 PM 62.1 °F 61.0 °F 96% 29.81 in 10.0 mi North 6.9 mph - 0.01 in Rain Light Rain
2:07 PM 60.8 °F 60.8 °F 100% 29.82 in 10.0 mi NNW 11.5 mph 18.4 mph 0.00 in   Overcast
2:18 PM 60.8 °F 59.0 °F 94% 29.82 in 10.0 mi NNW 8.1 mph 19.6 mph 0.00 in   Overcast
2:53 PM 60.1 °F 57.0 °F 90% 29.83 in 10.0 mi Variable 6.9 mph - 0.00 in   Overcast
3:53 PM 57.9 °F 55.9 °F 93% 29.84 in 10.0 mi North 10.4 mph - N/A   Overcast
4:53 PM 55.0 °F 53.1 °F 93% 29.87 in 10.0 mi North 8.1 mph 17.3 mph N/A   Overcast
5:46 PM 53.6 °F 51.8 °F 94% 29.91 in 10.0 mi NNW 9.2 mph - N/A   Overcast
5:53 PM 54.0 °F 51.1 °F 90% 29.91 in 10.0 mi NNW 4.6 mph - N/A   Overcast
6:53 PM 54.0 °F 50.0 °F 86% 29.92 in 10.0 mi North 6.9 mph 18.4 mph N/A   Overcast
7:53 PM 53.1 °F 48.0 °F 83% 29.93 in 10.0 mi North 10.4 mph - N/A   Overcast
8:53 PM 52.0 °F 46.9 °F 83% 29.96 in 10.0 mi NNW 5.8 mph - N/A   Overcast
9:53 PM 50.0 °F 43.0 °F 77% 29.99 in 10.0 mi NNW 8.1 mph - N/A   Scattered Clouds
10:00 PM 50.0 °F 42.8 °F 76% 29.98 in 10.0 mi North 6.9 mph - N/A   Mostly Cloudy
10:10 PM 48.2 °F 42.8 °F 82% 29.98 in 10.0 mi North 5.8 mph - N/A   Partly Cloudy
11:53 PM 46.9 °F 42.1 °F 83% 29.99 in 10.0 mi North 8.1 mph - N/A   Overcast